SL-4 R/B

Last updated on Sat Apr 13 2024 01:02:10 GMT+0100 (British Summer Time)

1 39679U 14021B 24103.30970893 .00005179 00000+0 20755-3 0 9994 2 39679 51.6102 80.6030 0140693 124.6125 236.8212 15.18177161549754

Satellite not in orbit